{"data":{"norad_id":56372,"epoch":"2026-05-22T17:59:17.759040Z","epoch_age_seconds":268893,"freshness":"STALE","line1":"1 56372U 23060C   26142.74951110 -.00000228  00000+0  00000+0 0  9998","line2":"2 56372   2.6612  80.1187 0004085 279.8154 239.0757  1.00281652  7285","mean_motion":1.00281652,"eccentricity":0.0004085,"inclination_deg":2.6612,"raan_deg":80.1187,"arg_perigee_deg":279.8154,"mean_anomaly_deg":239.0757,"bstar":0,"rev_number":728,"period_min":1435.9556023269,"perigee_km":35766.605946557,"apogee_km":35801.052272868,"semimajor_km":42161.966109713,"source":"CELESTRAK","updated_at":"2026-05-25T13:38:14.140700Z"}}